Back to catalog

IRIDIUM 176

AliveCommunicationsPO
NORAD 43923·PAYLOAD·🇺🇸 United States

Launched Jan 11, 2019 from Vandenberg Space Force Base

Loading…

Next Passes (next 24 hours)

TLE

FreshSource: CelesTrak SupGP

Epoch: Sep 14, 2026, 09:59 UTC

1 43923C 19002B   26257.41631944 -.00000984  00000+0 -15630-3 0  2574
2 43923  86.6097 316.2512 0002447  95.3579 348.1305 14.72245206    12

Track IRIDIUM 176 in real time with AllMySat

Download on the App Store